Flag for Qatar Weather past 2 weeks in Al Khor, Qatar

Now
93 °F

Haze.


Feels Like: 117 °F
Forecast: 87 / 106 °F
Wind: 5 mph from East

Location: Doha International Airport

Current Time: Aug 4, 2015 at 7:02:39 AM

Latest Report: Aug 4, 2015 at 6:00 AM


Visibility: 2 mi

Pressure: 29.59 "Hg

Humidity: 71%

Dew point: 82 °F

Historic Weather in Al Khor — Graph

°F

Al Khor temperature yesterday

Maximum temperature yesterday: 102 °F (at 3:00 PM)
Minimum temperature yesterday: 90 °F (at 5:00 AM)
Average temperature yesterday: 95 °F

Past Weeks' High & Low Weather Summary

 TemperatureHumidityPressure
High118 °F (Jul 27, 5:00 PM)84% (Jul 23, 2:00 AM)32.26 "Hg (Jul 23, 2:00 AM)
Low88 °F (Jul 23, 4:00 AM)8% (Jul 20, 9:00 AM)29.36 "Hg (Jul 20, 1:00 PM)
Average99 °F51%29.48 "Hg
* Reported Jul 20 6:00 AM — Aug 4 6:00 AM, Al Khor, Weather by CustomWeather, © 2015

Note: Actual official high and low records may vary slightly from our data, if they occured in-between our weather recording intervals... More about our weather records

Advertising

Al Khor weather history for previous 24 hours

 ConditionsComfort  
Time TempWeatherWind HumidityBarometerVisibility
6:00 AM
Tue, Aug 4
93 °FHaze.5 mph71%29.59 "Hg2 mi
5:00 AM91 °FHaze.7 mph75%29.56 "Hg2 mi
4:00 AM91 °FHaze.7 mph75%29.56 "Hg3 mi
3:00 AM91 °FHaze.6 mph71%29.56 "Hg3 mi
2:00 AM91 °FHaze.7 mph71%29.53 "Hg3 mi
1:00 AM90 °FHaze.3 mph75%29.53 "Hg3 mi
12:00 AM91 °FHaze.No wind71%29.53 "Hg3 mi
11:00 PM
Mon, Aug 3
93 °FClear.3 mph71%29.56 "Hg4 mi
10:00 PM93 °FHaze.3 mph71%29.56 "Hg3 mi
9:00 PM93 °FHaze.3 mph71%29.56 "Hg3 mi
8:00 PM95 °FHaze.8 mph67%29.53 "Hg3 mi
7:00 PM97 °FHaze.8 mph63%29.53 "Hg3 mi
6:00 PM97 °FHaze.10 mph63%29.53 "Hg2 mi
5:00 PM99 °FHaze.10 mph60%29.53 "Hg3 mi
4:00 PM100 °FClear.10 mph53%29.53 "Hg4 mi
3:00 PM102 °FClear.9 mph48%29.53 "Hg4 mi
12:00 PM99 °FClear.7 mph60%29.59 "Hg4 mi
10:00 AM99 °FClear.6 mph60%29.59 "Hg4 mi
9:00 AM99 °FClear.7 mph60%29.56 "Hg4 mi
8:00 AM97 °FClear.6 mph60%29.56 "Hg4 mi
7:00 AM95 °FClear.6 mph67%29.56 "Hg4 mi
Weather by CustomWeather, © 2015

See weather overviewHow to use our weather pages